Time,TemperatureF,DewpointF,PressureIn,WindDirection,WindDirectionDegrees,WindSpeedMPH,WindSpeedGustMPH,Humidity,HourlyPrecipIn,Conditions,Clouds,dailyrainin,SoftwareType,DateUTC
2013-08-25 00:00:00,69.4,61.9,30.30,ENE,67,0.0,0.0,77,0.00,,,0.02,WUHU21623XXSP,2013-08-25 04:00:00,
2013-08-25 00:05:00,69.3,61.7,30.31,ENE,67,0.0,0.0,77,0.00,,,0.00,WUHU21623XXSP,2013-08-25 04:05:00,
2013-08-25 00:11:00,69.1,61.5,30.30,ENE,67,0.0,0.0,77,0.00,,,0.00,WUHU21623XXSP,2013-08-25 04:11:00,
2013-08-25 00:16:00,69.1,61.5,30.30,ENE,67,0.0,0.0,77,0.00,,,0.00,WUHU21623XXSP,2013-08-25 04:16:00,
2013-08-25 00:21:00,68.9,61.4,30.31,ENE,67,0.0,0.0,77,0.00,,,0.00,WUHU21623XXSP,2013-08-25 04:21:00,
2013-08-25 00:26:00,68.7,61.2,30.30,ENE,67,0.0,0.0,77,0.00,,,0.00,WUHU21623XXSP,2013-08-25 04:26:00,
2013-08-25 00:31:00,68.5,61.1,30.31,ENE,67,0.0,0.0,77,0.00,,,0.00,WUHU21623XXSP,2013-08-25 04:31:00,
2013-08-25 00:36:00,68.2,61.3,30.31,ENE,67,0.0,0.0,78,0.00,,,0.00,WUHU21623XXSP,2013-08-25 04:36:00,
2013-08-25 00:41:00,67.8,60.8,30.31,ENE,67,0.0,0.0,78,0.00,,,0.00,WUHU21623XXSP,2013-08-25 04:41:00,
2013-08-25 00:46:00,67.6,60.6,30.31,ENE,67,0.0,0.0,78,0.00,,,0.00,WUHU21623XXSP,2013-08-25 04:46:00,
2013-08-25 00:51:00,67.3,60.2,30.31,ENE,67,0.0,0.0,78,0.00,,,0.00,WUHU21623XXSP,2013-08-25 04:51:00,
2013-08-25 00:56:00,67.1,60.0,30.32,ENE,67,0.0,0.0,78,0.00,,,0.00,WUHU21623XXSP,2013-08-25 04:56:00,
2013-08-25 01:01:00,66.9,59.9,30.32,ENE,67,0.0,0.0,78,0.00,,,0.00,WUHU21623XXSP,2013-08-25 05:01:00,
2013-08-25 01:06:00,66.7,60.1,30.32,ENE,67,0.0,0.0,79,0.00,,,0.00,WUHU21623XXSP,2013-08-25 05:06:00,
2013-08-25 01:11:00,66.6,59.9,30.32,ENE,67,0.0,0.0,79,0.00,,,0.00,WUHU21623XXSP,2013-08-25 05:11:00,
2013-08-25 01:16:00,66.2,59.5,30.32,ENE,67,0.0,0.0,79,0.00,,,0.00,WUHU21623XXSP,2013-08-25 05:16:00,
2013-08-25 01:21:00,66.0,59.7,30.32,ENE,67,0.0,0.0,80,0.00,,,0.00,WUHU21623XXSP,2013-08-25 05:21:00,
2013-08-25 01:26:00,66.0,59.7,30.32,ENE,67,0.0,0.0,80,0.00,,,0.00,WUHU21623XXSP,2013-08-25 05:26:00,
2013-08-25 01:31:00,65.8,59.5,30.32,ENE,67,0.0,0.0,80,0.00,,,0.00,WUHU21623XXSP,2013-08-25 05:31:00,
2013-08-25 01:36:00,65.5,59.2,30.31,ENE,67,0.0,0.0,80,0.00,,,0.00,WUHU21623XXSP,2013-08-25 05:36:00,
2013-08-25 01:41:00,65.5,59.2,30.31,ENE,67,0.0,0.0,80,0.00,,,0.00,WUHU21623XXSP,2013-08-25 05:41:00,
2013-08-25 01:46:00,65.3,59.3,30.32,ENE,67,0.0,0.0,81,0.00,,,0.00,WUHU21623XXSP,2013-08-25 05:46:00,
2013-08-25 01:51:00,65.1,59.1,30.32,ENE,67,0.0,0.0,81,0.00,,,0.00,WUHU21623XXSP,2013-08-25 05:51:00,
2013-08-25 01:56:00,65.1,59.1,30.32,ENE,67,0.0,0.0,81,0.00,,,0.00,WUHU21623XXSP,2013-08-25 05:56:00,
2013-08-25 02:01:00,65.1,59.1,30.31,ENE,67,0.0,0.0,81,0.00,,,0.00,WUHU21623XXSP,2013-08-25 06:01:00,
2013-08-25 02:06:00,64.9,59.3,30.32,ENE,67,0.0,0.0,82,0.00,,,0.00,WUHU21623XXSP,2013-08-25 06:06:00,
2013-08-25 02:11:00,64.9,59.3,30.32,ENE,67,0.0,0.0,82,0.00,,,0.00,WUHU21623XXSP,2013-08-25 06:11:00,
2013-08-25 02:16:00,64.6,59.3,30.31,ENE,67,0.0,0.0,83,0.00,,,0.00,WUHU21623XXSP,2013-08-25 06:16:00,
2013-08-25 02:21:00,64.6,59.3,30.31,ENE,67,0.0,0.0,83,0.00,,,0.00,WUHU21623XXSP,2013-08-25 06:21:00,
2013-08-25 02:26:00,64.4,59.1,30.31,ENE,67,0.0,0.0,83,0.00,,,0.00,WUHU21623XXSP,2013-08-25 06:26:00,
2013-08-25 02:31:00,64.2,58.9,30.31,ENE,67,0.0,0.0,83,0.00,,,0.00,WUHU21623XXSP,2013-08-25 06:31:00,
2013-08-25 02:36:00,64.0,58.8,30.31,ENE,67,0.0,0.0,83,0.00,,,0.00,WUHU21623XXSP,2013-08-25 06:36:00,
2013-08-25 02:41:00,64.0,58.8,30.32,ENE,67,0.0,0.0,83,0.00,,,0.00,WUHU21623XXSP,2013-08-25 06:41:00,
2013-08-25 02:46:00,63.7,58.7,30.31,ENE,67,0.0,0.0,84,0.00,,,0.00,WUHU21623XXSP,2013-08-25 06:46:00,
2013-08-25 02:51:00,63.7,58.7,30.31,ENE,67,0.0,0.0,84,0.00,,,0.00,WUHU21623XXSP,2013-08-25 06:51:00,
2013-08-25 02:56:00,63.5,58.6,30.32,ENE,67,0.0,0.0,84,0.00,,,0.00,WUHU21623XXSP,2013-08-25 06:56:00,
2013-08-25 03:01:00,63.3,58.4,30.32,ENE,67,0.0,0.0,84,0.00,,,0.00,WUHU21623XXSP,2013-08-25 07:01:00,
2013-08-25 03:06:00,63.1,58.4,30.32,ENE,67,0.0,0.0,84,0.00,,,0.00,WUHU21623XXSP,2013-08-25 07:06:00,
2013-08-25 03:11:00,63.1,58.2,30.32,ENE,67,0.0,0.0,84,0.00,,,0.00,WUHU21623XXSP,2013-08-25 07:11:00,
2013-08-25 03:16:00,63.0,58.0,30.32,ENE,67,0.0,0.0,84,0.00,,,0.00,WUHU21623XXSP,2013-08-25 07:16:00,
2013-08-25 03:21:00,62.8,57.8,30.32,ENE,67,0.0,0.0,84,0.00,,,0.00,WUHU21623XXSP,2013-08-25 07:21:00,
2013-08-25 03:27:00,62.6,57.8,30.32,ENE,67,0.0,0.0,84,0.00,,,0.00,WUHU21623XXSP,2013-08-25 07:27:00,
2013-08-25 03:32:00,62.4,57.5,30.32,ENE,67,0.0,0.0,84,0.00,,,0.00,WUHU21623XXSP,2013-08-25 07:32:00,
2013-08-25 03:37:00,62.4,57.5,30.32,ENE,67,0.0,0.0,84,0.00,,,0.00,WUHU21623XXSP,2013-08-25 07:37:00,
2013-08-25 03:42:00,62.4,57.8,30.32,ENE,67,0.0,0.0,85,0.00,,,0.00,WUHU21623XXSP,2013-08-25 07:42:00,
2013-08-25 03:47:00,62.2,57.7,30.32,ENE,67,0.0,0.0,85,0.00,,,0.00,WUHU21623XXSP,2013-08-25 07:47:00,
2013-08-25 03:52:00,62.2,57.7,30.32,ENE,67,0.0,0.0,85,0.00,,,0.00,WUHU21623XXSP,2013-08-25 07:52:00,
2013-08-25 03:57:00,62.1,57.5,30.33,ENE,67,0.0,0.0,85,0.00,,,0.00,WUHU21623XXSP,2013-08-25 07:57:00,
2013-08-25 04:02:00,61.9,57.3,30.33,ENE,67,0.0,0.0,85,0.00,,,0.00,WUHU21623XXSP,2013-08-25 08:02:00,
2013-08-25 04:07:00,61.9,57.3,30.33,ENE,67,0.0,0.0,85,0.00,,,0.00,WUHU21623XXSP,2013-08-25 08:07:00,
2013-08-25 04:12:00,61.9,57.3,30.33,ENE,67,0.0,0.0,85,0.00,,,0.00,WUHU21623XXSP,2013-08-25 08:12:00,
2013-08-25 04:17:00,61.7,57.1,30.33,ENE,67,0.0,0.0,85,0.00,,,0.00,WUHU21623XXSP,2013-08-25 08:17:00,
2013-08-25 04:22:00,61.7,57.1,30.33,ENE,67,0.0,0.0,85,0.00,,,0.00,WUHU21623XXSP,2013-08-25 08:22:00,
2013-08-25 04:27:00,61.7,57.1,30.33,ENE,67,0.0,0.0,85,0.00,,,0.00,WUHU21623XXSP,2013-08-25 08:27:00,
2013-08-25 04:32:00,61.5,57.0,30.33,ENE,67,0.0,0.0,85,0.00,,,0.00,WUHU21623XXSP,2013-08-25 08:32:00,
2013-08-25 04:37:00,61.7,57.3,30.33,ENE,67,0.0,0.0,86,0.00,,,0.00,WUHU21623XXSP,2013-08-25 08:37:00,
2013-08-25 04:42:00,61.7,57.3,30.32,ENE,67,0.0,0.0,86,0.00,,,0.00,WUHU21623XXSP,2013-08-25 08:42:00,
2013-08-25 04:47:00,61.5,57.5,30.32,ENE,67,0.0,0.0,86,0.00,,,0.00,WUHU21623XXSP,2013-08-25 08:47:00,
2013-08-25 04:52:00,61.5,57.3,30.32,ENE,67,0.0,0.0,86,0.00,,,0.00,WUHU21623XXSP,2013-08-25 08:52:00,
2013-08-25 04:57:00,61.5,57.3,30.32,ENE,67,0.0,0.0,86,0.00,,,0.00,WUHU21623XXSP,2013-08-25 08:57:00,
2013-08-25 05:02:00,61.5,57.3,30.33,ENE,67,0.0,0.0,86,0.00,,,0.00,WUHU21623XXSP,2013-08-25 09:02:00,
2013-08-25 05:07:00,61.5,57.3,30.33,ENE,67,0.0,0.0,86,0.00,,,0.00,WUHU21623XXSP,2013-08-25 09:07:00,
2013-08-25 05:12:00,61.2,57.0,30.33,ENE,67,0.0,0.0,86,0.00,,,0.00,WUHU21623XXSP,2013-08-25 09:12:00,
2013-08-25 05:17:00,61.2,57.0,30.33,ENE,67,0.0,0.0,86,0.00,,,0.00,WUHU21623XXSP,2013-08-25 09:17:00,
2013-08-25 05:22:00,61.0,57.0,30.33,ENE,67,0.0,0.0,86,0.00,,,0.00,WUHU21623XXSP,2013-08-25 09:22:00,
2013-08-25 05:27:00,61.0,56.8,30.33,ENE,67,0.0,0.0,86,0.00,,,0.00,WUHU21623XXSP,2013-08-25 09:27:00,
2013-08-25 05:32:00,61.0,56.8,30.33,ENE,67,0.0,0.0,86,0.00,,,0.00,WUHU21623XXSP,2013-08-25 09:32:00,
2013-08-25 05:37:00,60.8,56.6,30.33,ENE,67,0.0,0.0,86,0.00,,,0.00,WUHU21623XXSP,2013-08-25 09:37:00,
2013-08-25 05:42:00,60.6,56.4,30.33,ENE,67,0.0,0.0,86,0.00,,,0.00,WUHU21623XXSP,2013-08-25 09:42:00,
2013-08-25 05:47:00,60.6,56.8,30.33,ENE,67,0.0,0.0,87,0.00,,,0.00,WUHU21623XXSP,2013-08-25 09:47:00,
2013-08-25 05:52:00,60.6,56.8,30.34,ENE,67,0.0,0.0,87,0.00,,,0.00,WUHU21623XXSP,2013-08-25 09:52:00,
2013-08-25 05:57:00,60.6,56.8,30.33,ENE,67,0.0,0.0,87,0.00,,,0.00,WUHU21623XXSP,2013-08-25 09:57:00,
2013-08-25 06:02:00,60.6,56.8,30.33,ENE,67,0.0,0.0,87,0.00,,,0.00,WUHU21623XXSP,2013-08-25 10:02:00,
2013-08-25 06:07:00,60.6,56.8,30.33,ENE,67,0.0,0.0,87,0.00,,,0.00,WUHU21623XXSP,2013-08-25 10:07:00,
2013-08-25 06:12:00,60.6,56.8,30.34,ENE,67,0.0,0.0,87,0.00,,,0.00,WUHU21623XXSP,2013-08-25 10:12:00,
2013-08-25 06:17:00,60.4,56.6,30.34,ENE,67,0.0,0.0,87,0.00,,,0.00,WUHU21623XXSP,2013-08-25 10:17:00,
2013-08-25 06:22:00,60.4,56.6,30.34,ENE,67,0.0,0.0,87,0.00,,,0.00,WUHU21623XXSP,2013-08-25 10:22:00,
2013-08-25 06:27:00,60.4,56.6,30.34,ENE,67,0.0,0.0,87,0.00,,,0.00,WUHU21623XXSP,2013-08-25 10:27:00,
2013-08-25 06:32:00,60.4,56.6,30.34,ENE,67,0.0,0.0,87,0.00,,,0.00,WUHU21623XXSP,2013-08-25 10:32:00,
2013-08-25 06:37:00,60.1,56.2,30.34,ENE,67,0.0,0.0,87,0.00,,,0.00,WUHU21623XXSP,2013-08-25 10:37:00,
2013-08-25 06:42:00,60.1,56.2,30.34,ENE,67,0.0,0.0,87,0.00,,,0.00,WUHU21623XXSP,2013-08-25 10:42:00,
2013-08-25 06:47:00,60.1,56.2,30.34,ENE,67,0.0,0.0,87,0.00,,,0.00,WUHU21623XXSP,2013-08-25 10:47:00,
2013-08-25 06:52:00,59.9,56.0,30.35,ENE,67,0.0,0.0,87,0.00,,,0.00,WUHU21623XXSP,2013-08-25 10:52:00,
2013-08-25 06:57:00,59.7,55.9,30.35,ENE,67,0.0,0.0,87,0.00,,,0.00,WUHU21623XXSP,2013-08-25 10:57:00,
2013-08-25 07:03:00,59.7,55.9,30.35,ENE,67,0.0,0.0,87,0.00,,,0.00,WUHU21623XXSP,2013-08-25 11:03:00,
2013-08-25 07:08:00,59.7,55.9,30.35,ENE,67,0.0,0.0,87,0.00,,,0.00,WUHU21623XXSP,2013-08-25 11:08:00,
2013-08-25 07:13:00,59.5,55.7,30.35,ENE,67,0.0,0.0,87,0.00,,,0.00,WUHU21623XXSP,2013-08-25 11:13:00,
2013-08-25 07:18:00,59.5,55.7,30.36,ENE,67,0.0,0.0,87,0.00,,,0.00,WUHU21623XXSP,2013-08-25 11:18:00,
2013-08-25 07:23:00,59.5,55.7,30.36,ENE,67,0.0,0.0,87,0.00,,,0.00,WUHU21623XXSP,2013-08-25 11:23:00,
2013-08-25 07:28:00,59.5,55.7,30.36,ENE,67,0.0,0.0,87,0.00,,,0.00,WUHU21623XXSP,2013-08-25 11:28:00,
2013-08-25 07:33:00,59.5,55.7,30.36,ENE,67,0.0,0.0,87,0.00,,,0.00,WUHU21623XXSP,2013-08-25 11:33:00,
2013-08-25 07:38:00,59.5,56.0,30.37,ENE,67,0.0,0.0,88,0.00,,,0.00,WUHU21623XXSP,2013-08-25 11:38:00,
2013-08-25 07:43:00,59.5,56.0,30.37,ENE,67,0.0,0.0,88,0.00,,,0.00,WUHU21623XXSP,2013-08-25 11:43:00,
2013-08-25 07:48:00,59.5,56.0,30.37,ENE,67,0.0,0.0,88,0.00,,,0.00,WUHU21623XXSP,2013-08-25 11:48:00,
2013-08-25 07:53:00,59.7,56.2,30.37,ENE,67,0.0,0.0,88,0.00,,,0.00,WUHU21623XXSP,2013-08-25 11:53:00,
2013-08-25 07:58:00,59.7,56.2,30.37,ENE,67,0.0,0.0,88,0.00,,,0.00,WUHU21623XXSP,2013-08-25 11:58:00,
2013-08-25 08:03:00,59.9,56.2,30.37,ENE,67,0.0,0.0,88,0.00,,,0.00,WUHU21623XXSP,2013-08-25 12:03:00,
2013-08-25 08:08:00,59.9,56.4,30.38,ENE,67,0.0,0.0,88,0.00,,,0.00,WUHU21623XXSP,2013-08-25 12:08:00,
2013-08-25 08:13:00,60.1,56.6,30.38,ENE,67,0.0,0.0,88,0.00,,,0.00,WUHU21623XXSP,2013-08-25 12:13:00,
2013-08-25 08:18:00,60.3,56.7,30.38,ENE,67,0.0,0.0,88,0.00,,,0.00,WUHU21623XXSP,2013-08-25 12:18:00,
2013-08-25 08:23:00,60.4,56.9,30.38,ENE,67,0.0,0.0,88,0.00,,,0.00,WUHU21623XXSP,2013-08-25 12:23:00,
2013-08-25 08:28:00,60.4,56.9,30.38,ENE,67,0.0,0.0,88,0.00,,,0.00,WUHU21623XXSP,2013-08-25 12:28:00,
2013-08-25 08:33:00,61.0,57.4,30.38,ENE,67,0.0,0.0,88,0.00,,,0.00,WUHU21623XXSP,2013-08-25 12:33:00,
2013-08-25 08:38:00,61.5,58.3,30.38,ENE,67,0.0,0.0,89,0.00,,,0.00,WUHU21623XXSP,2013-08-25 12:38:00,
2013-08-25 08:43:00,61.7,58.5,30.38,ENE,67,0.0,0.0,89,0.00,,,0.00,WUHU21623XXSP,2013-08-25 12:43:00,
2013-08-25 08:48:00,62.1,58.8,30.38,ENE,67,0.0,0.0,89,0.00,,,0.00,WUHU21623XXSP,2013-08-25 12:48:00,
2013-08-25 08:53:00,62.4,59.2,30.38,ENE,67,0.0,0.0,89,0.00,,,0.00,WUHU21623XXSP,2013-08-25 12:53:00,
2013-08-25 08:58:00,62.8,59.6,30.38,ENE,67,0.0,0.0,89,0.00,,,0.00,WUHU21623XXSP,2013-08-25 12:58:00,
2013-08-25 09:03:00,63.5,60.3,30.39,ENE,67,0.0,0.0,89,0.00,,,0.00,WUHU21623XXSP,2013-08-25 13:03:00,
2013-08-25 09:08:00,63.9,60.6,30.39,ENE,67,0.0,0.0,89,0.00,,,0.00,WUHU21623XXSP,2013-08-25 13:08:00,
2013-08-25 09:13:00,64.0,60.8,30.39,ENE,67,0.0,0.0,89,0.00,,,0.00,WUHU21623XXSP,2013-08-25 13:13:00,
2013-08-25 09:18:00,64.2,61.0,30.40,ENE,67,0.0,0.0,89,0.00,,,0.00,WUHU21623XXSP,2013-08-25 13:18:00,
2013-08-25 09:23:00,64.2,60.7,30.40,ENE,67,0.0,0.0,88,0.00,,,0.00,WUHU21623XXSP,2013-08-25 13:23:00,
2013-08-25 09:28:00,64.4,60.5,30.40,ENE,67,0.0,0.0,87,0.00,,,0.00,WUHU21623XXSP,2013-08-25 13:28:00,
2013-08-25 09:33:00,64.8,60.8,30.39,ENE,67,0.0,0.0,87,0.00,,,0.00,WUHU21623XXSP,2013-08-25 13:33:00,
2013-08-25 09:38:00,64.9,61.0,30.40,ENE,67,0.0,0.0,87,0.00,,,0.00,WUHU21623XXSP,2013-08-25 13:38:00,
2013-08-25 09:43:00,65.5,61.2,30.40,ENE,67,0.0,0.0,86,0.00,,,0.00,WUHU21623XXSP,2013-08-25 13:43:00,
2013-08-25 09:48:00,66.4,61.7,30.40,ENE,67,0.0,0.0,85,0.00,,,0.00,WUHU21623XXSP,2013-08-25 13:48:00,
2013-08-25 09:53:00,66.7,61.7,30.40,ENE,67,0.0,0.0,84,0.00,,,0.00,WUHU21623XXSP,2013-08-25 13:53:00,
2013-08-25 09:58:00,66.9,61.6,30.39,ENE,67,0.0,0.0,83,0.00,,,0.00,WUHU21623XXSP,2013-08-25 13:58:00,
2013-08-25 10:03:00,67.6,61.6,30.40,ENE,67,0.0,0.0,82,0.00,,,0.00,WUHU21623XXSP,2013-08-25 14:03:00,
2013-08-25 10:08:00,67.8,61.8,30.40,ENE,67,0.0,0.0,81,0.00,,,0.00,WUHU21623XXSP,2013-08-25 14:08:00,
2013-08-25 10:13:00,68.4,62.3,30.40,ENE,67,0.0,0.0,81,0.00,,,0.00,WUHU21623XXSP,2013-08-25 14:13:00,
2013-08-25 10:18:00,69.1,62.7,30.40,ENE,67,0.0,0.0,80,0.00,,,0.00,WUHU21623XXSP,2013-08-25 14:18:00,
2013-08-25 10:24:00,69.6,63.0,30.40,ENE,67,0.0,0.0,80,0.00,,,0.00,WUHU21623XXSP,2013-08-25 14:24:00,
2013-08-25 10:29:00,70.3,63.5,30.39,ENE,67,0.0,0.0,78,0.00,,,0.00,WUHU21623XXSP,2013-08-25 14:29:00,
2013-08-25 10:34:00,70.9,63.6,30.39,ENE,67,0.0,0.0,78,0.00,,,0.00,WUHU21623XXSP,2013-08-25 14:34:00,
2013-08-25 10:39:00,71.4,64.0,30.40,ENE,67,0.0,0.0,78,0.00,,,0.00,WUHU21623XXSP,2013-08-25 14:39:00,
2013-08-25 10:44:00,72.5,64.5,30.40,NE,45,0.0,0.0,76,0.00,,,0.00,WUHU21623XXSP,2013-08-25 14:44:00,
2013-08-25 10:49:00,73.2,64.8,30.40,NE,45,0.0,0.0,75,0.00,,,0.00,WUHU21623XXSP,2013-08-25 14:49:00,
2013-08-25 10:54:00,73.6,64.7,30.40,NE,45,0.0,0.0,73,0.00,,,0.00,WUHU21623XXSP,2013-08-25 14:54:00,
2013-08-25 10:59:00,73.8,63.8,30.39,NE,45,0.0,0.0,71,0.00,,,0.00,WUHU21623XXSP,2013-08-25 14:59:00,
2013-08-25 11:04:00,74.5,64.2,30.39,NE,45,0.0,0.0,71,0.00,,,0.00,WUHU21623XXSP,2013-08-25 15:04:00,
2013-08-25 11:09:00,75.2,64.8,30.39,NE,45,0.0,0.0,72,0.00,,,0.00,WUHU21623XXSP,2013-08-25 15:09:00,
2013-08-25 11:14:00,76.3,65.8,30.39,NE,45,0.0,0.0,70,0.00,,,0.00,WUHU21623XXSP,2013-08-25 15:14:00,
2013-08-25 11:19:00,77.2,66.7,30.39,NE,45,0.0,0.0,70,0.00,,,0.00,WUHU21623XXSP,2013-08-25 15:19:00,
2013-08-25 11:24:00,77.9,66.5,30.39,NE,45,0.0,0.0,68,0.00,,,0.00,WUHU21623XXSP,2013-08-25 15:24:00,
2013-08-25 11:29:00,78.4,66.7,30.38,NE,45,0.0,0.0,66,0.00,,,0.00,WUHU21623XXSP,2013-08-25 15:29:00,
2013-08-25 11:34:00,78.6,65.8,30.39,NE,45,0.0,0.0,65,0.00,,,0.00,WUHU21623XXSP,2013-08-25 15:34:00,
2013-08-25 11:39:00,79.2,66.8,30.39,NE,45,0.0,0.0,66,0.00,,,0.00,WUHU21623XXSP,2013-08-25 15:39:00,
2013-08-25 11:44:00,79.5,66.7,30.39,NE,45,0.0,0.0,65,0.00,,,0.00,WUHU21623XXSP,2013-08-25 15:44:00,
2013-08-25 11:49:00,79.2,66.1,30.39,NE,45,0.0,0.0,64,0.00,,,0.00,WUHU21623XXSP,2013-08-25 15:49:00,
2013-08-25 11:54:00,79.0,65.3,30.39,NE,45,0.0,0.0,63,0.00,,,0.00,WUHU21623XXSP,2013-08-25 15:54:00,
2013-08-25 11:59:00,79.5,65.9,30.39,NE,45,0.0,0.0,63,0.00,,,0.00,WUHU21623XXSP,2013-08-25 15:59:00,
2013-08-25 12:04:00,80.4,66.7,30.38,NE,45,0.0,0.0,63,0.00,,,0.00,WUHU21623XXSP,2013-08-25 16:04:00,
2013-08-25 12:09:00,81.1,66.4,30.38,NE,45,0.0,0.0,61,0.00,,,0.00,WUHU21623XXSP,2013-08-25 16:09:00,
2013-08-25 12:14:00,81.1,65.4,30.38,NE,45,0.0,0.0,59,0.00,,,0.00,WUHU21623XXSP,2013-08-25 16:14:00,
2013-08-25 12:19:00,81.3,65.6,30.38,NE,45,0.0,0.0,59,0.00,,,0.00,WUHU21623XXSP,2013-08-25 16:19:00,
2013-08-25 12:24:00,82.0,65.9,30.38,NE,45,0.0,0.0,60,0.00,,,0.00,WUHU21623XXSP,2013-08-25 16:24:00,
2013-08-25 12:29:00,82.6,66.8,30.38,NE,45,0.0,0.0,59,0.00,,,0.00,WUHU21623XXSP,2013-08-25 16:29:00,
2013-08-25 12:34:00,83.1,66.8,30.38,NE,45,0.0,0.0,58,0.00,,,0.00,WUHU21623XXSP,2013-08-25 16:34:00,
2013-08-25 12:39:00,84.0,67.0,30.38,ESE,112,0.0,0.0,56,0.00,,,0.00,WUHU21623XXSP,2013-08-25 16:39:00,
2013-08-25 12:44:00,84.2,66.6,30.37,ESE,112,0.0,0.0,56,0.00,,,0.00,WUHU21623XXSP,2013-08-25 16:44:00,
2013-08-25 12:49:00,84.4,66.5,30.37,ESE,112,0.0,0.0,55,0.00,,,0.00,WUHU21623XXSP,2013-08-25 16:49:00,
2013-08-25 12:54:00,85.1,67.6,30.37,ESE,112,0.0,0.0,56,0.00,,,0.00,WUHU21623XXSP,2013-08-25 16:54:00,
2013-08-25 12:59:00,85.6,67.6,30.36,South,180,0.0,0.0,55,0.00,,,0.00,WUHU21623XXSP,2013-08-25 16:59:00,
2013-08-25 13:04:00,86.2,68.3,30.36,South,180,0.0,0.0,56,0.00,,,0.00,WUHU21623XXSP,2013-08-25 17:04:00,
2013-08-25 13:09:00,86.4,67.2,30.35,South,180,0.0,0.0,53,0.00,,,0.00,WUHU21623XXSP,2013-08-25 17:09:00,
2013-08-25 13:14:00,86.5,68.4,30.35,South,180,0.0,0.0,55,0.00,,,0.00,WUHU21623XXSP,2013-08-25 17:14:00,
2013-08-25 13:19:00,86.7,68.1,30.35,South,180,0.0,0.0,54,0.00,,,0.00,WUHU21623XXSP,2013-08-25 17:19:00,
2013-08-25 13:24:00,86.9,68.2,30.35,South,180,0.0,0.0,54,0.00,,,0.00,WUHU21623XXSP,2013-08-25 17:24:00,
2013-08-25 13:29:00,87.1,67.9,30.35,South,180,0.0,0.0,53,0.00,,,0.00,WUHU21623XXSP,2013-08-25 17:29:00,
2013-08-25 13:35:00,87.4,68.2,30.35,South,180,0.0,0.0,53,0.00,,,0.00,WUHU21623XXSP,2013-08-25 17:35:00,
2013-08-25 13:40:00,87.1,67.3,30.34,WSW,247,0.0,0.0,52,0.00,,,0.00,WUHU21623XXSP,2013-08-25 17:40:00,
2013-08-25 13:45:00,87.1,67.9,30.34,WSW,247,0.0,0.0,53,0.00,,,0.00,WUHU21623XXSP,2013-08-25 17:45:00,
2013-08-25 13:50:00,87.1,67.3,30.34,East,90,0.0,0.0,52,0.00,,,0.00,WUHU21623XXSP,2013-08-25 17:50:00,
2013-08-25 13:55:00,87.6,67.3,30.34,East,90,0.0,0.0,51,0.00,,,0.00,WUHU21623XXSP,2013-08-25 17:55:00,
2013-08-25 14:00:00,87.4,66.6,30.34,East,90,0.0,0.0,50,0.00,,,0.00,WUHU21623XXSP,2013-08-25 18:00:00,
2013-08-25 14:05:00,87.1,66.3,30.34,East,90,0.0,0.0,50,0.00,,,0.00,WUHU21623XXSP,2013-08-25 18:05:00,
2013-08-25 14:10:00,86.5,66.7,30.34,East,90,0.0,0.0,53,0.00,,,0.00,WUHU21623XXSP,2013-08-25 18:10:00,
2013-08-25 14:15:00,87.1,67.9,30.34,East,90,0.0,0.0,53,0.00,,,0.00,WUHU21623XXSP,2013-08-25 18:15:00,
2013-08-25 14:20:00,87.6,67.3,30.33,East,90,0.0,0.0,51,0.00,,,0.00,WUHU21623XXSP,2013-08-25 18:20:00,
2013-08-25 14:25:00,88.0,67.1,30.33,East,90,0.0,0.0,50,0.00,,,0.00,WUHU21623XXSP,2013-08-25 18:25:00,
2013-08-25 14:30:00,88.0,68.2,30.33,East,90,0.0,0.0,52,0.00,,,0.00,WUHU21623XXSP,2013-08-25 18:30:00,
2013-08-25 14:35:00,88.2,68.2,30.33,East,90,0.0,0.0,51,0.00,,,0.00,WUHU21623XXSP,2013-08-25 18:35:00,
2013-08-25 14:40:00,88.3,69.0,30.32,East,90,0.0,0.0,53,0.00,,,0.00,WUHU21623XXSP,2013-08-25 18:40:00,
2013-08-25 14:45:00,88.5,68.6,30.32,ESE,112,0.0,0.0,52,0.00,,,0.00,WUHU21623XXSP,2013-08-25 18:45:00,
2013-08-25 14:50:00,89.2,70.4,30.32,ESE,112,0.0,0.0,54,0.00,,,0.00,WUHU21623XXSP,2013-08-25 18:50:00,
2013-08-25 14:55:00,89.1,68.8,30.32,ESE,112,0.0,0.0,51,0.00,,,0.00,WUHU21623XXSP,2013-08-25 18:55:00,
2013-08-25 15:00:00,88.9,68.4,30.31,ESE,112,0.0,0.0,51,0.00,,,0.00,WUHU21623XXSP,2013-08-25 19:00:00,
2013-08-25 15:05:00,88.3,66.8,30.31,ESE,112,0.0,0.0,49,0.00,,,0.00,WUHU21623XXSP,2013-08-25 19:05:00,
2013-08-25 15:10:00,88.2,67.2,30.31,ESE,112,0.0,0.0,50,0.00,,,0.00,WUHU21623XXSP,2013-08-25 19:10:00,
2013-08-25 15:15:00,88.2,68.3,30.31,ESE,112,0.0,0.0,52,0.00,,,0.00,WUHU21623XXSP,2013-08-25 19:15:00,
2013-08-25 15:20:00,86.9,67.2,30.30,ESE,112,0.0,0.0,52,0.00,,,0.00,WUHU21623XXSP,2013-08-25 19:20:00,
2013-08-25 15:25:00,85.8,66.7,30.30,ESE,112,0.0,0.0,53,0.00,,,0.00,WUHU21623XXSP,2013-08-25 19:25:00,
2013-08-25 15:30:00,85.3,66.7,30.30,ESE,112,0.0,0.0,54,0.00,,,0.00,WUHU21623XXSP,2013-08-25 19:30:00,
2013-08-25 15:35:00,84.4,66.5,30.30,East,90,0.0,0.0,55,0.00,,,0.00,WUHU21623XXSP,2013-08-25 19:35:00,
2013-08-25 15:40:00,83.8,65.9,30.30,East,90,0.0,0.0,55,0.00,,,0.00,WUHU21623XXSP,2013-08-25 19:40:00,
2013-08-25 15:45:00,83.1,65.6,30.30,East,90,0.0,0.0,56,0.00,,,0.00,WUHU21623XXSP,2013-08-25 19:45:00,
2013-08-25 15:50:00,83.5,66.6,30.30,East,90,0.0,0.0,57,0.00,,,0.00,WUHU21623XXSP,2013-08-25 19:50:00,
2013-08-25 15:55:00,84.4,67.0,30.30,East,90,0.0,0.0,56,0.00,,,0.00,WUHU21623XXSP,2013-08-25 19:55:00,
2013-08-25 16:00:00,85.1,67.6,30.30,East,90,0.0,0.0,56,0.00,,,0.00,WUHU21623XXSP,2013-08-25 20:00:00,
2013-08-25 16:05:00,85.8,67.7,30.30,East,90,0.0,0.0,55,0.00,,,0.00,WUHU21623XXSP,2013-08-25 20:05:00,
2013-08-25 16:10:00,86.5,68.1,30.30,East,90,0.0,0.0,55,0.00,,,0.00,WUHU21623XXSP,2013-08-25 20:10:00,
2013-08-25 16:15:00,87.1,68.9,30.30,East,90,0.0,0.0,55,0.00,,,0.00,WUHU21623XXSP,2013-08-25 20:15:00,
2013-08-25 16:20:00,87.6,68.4,30.29,ESE,112,0.0,0.0,53,0.00,,,0.00,WUHU21623XXSP,2013-08-25 20:20:00,
2013-08-25 16:25:00,87.6,68.4,30.29,ESE,112,0.0,0.0,53,0.00,,,0.00,WUHU21623XXSP,2013-08-25 20:25:00,
2013-08-25 16:30:00,87.6,67.8,30.29,ESE,112,0.0,0.0,52,0.00,,,0.00,WUHU21623XXSP,2013-08-25 20:30:00,
2013-08-25 16:35:00,87.4,67.7,30.29,ESE,112,0.0,0.0,52,0.00,,,0.00,WUHU21623XXSP,2013-08-25 20:35:00,
2013-08-25 16:40:00,86.7,67.5,30.29,ESE,112,0.0,0.0,53,0.00,,,0.00,WUHU21623XXSP,2013-08-25 20:40:00,
2013-08-25 16:46:00,86.2,67.6,30.29,ESE,112,0.0,0.0,54,0.00,,,0.00,WUHU21623XXSP,2013-08-25 20:46:00,
2013-08-25 16:51:00,85.8,67.2,30.29,ESE,112,0.0,0.0,54,0.00,,,0.00,WUHU21623XXSP,2013-08-25 20:51:00,
2013-08-25 16:56:00,85.8,67.7,30.29,ESE,112,0.0,0.0,55,0.00,,,0.00,WUHU21623XXSP,2013-08-25 20:56:00,
2013-08-25 17:01:00,85.8,67.6,30.29,ENE,67,0.0,0.0,54,0.00,,,0.00,WUHU21623XXSP,2013-08-25 21:01:00,
2013-08-25 17:06:00,85.8,67.7,30.29,East,90,0.0,0.0,55,0.00,,,0.00,WUHU21623XXSP,2013-08-25 21:06:00,
2013-08-25 17:11:00,85.6,67.1,30.29,East,90,0.0,0.0,54,0.00,,,0.00,WUHU21623XXSP,2013-08-25 21:11:00,
2013-08-25 17:16:00,85.3,67.3,30.29,East,90,0.0,0.0,55,0.00,,,0.00,WUHU21623XXSP,2013-08-25 21:16:00,
2013-08-25 17:21:00,84.7,66.8,30.29,NNW,337,0.0,0.0,55,0.00,,,0.00,WUHU21623XXSP,2013-08-25 21:21:00,
2013-08-25 17:26:00,84.6,67.1,30.29,NNW,337,0.0,0.0,56,0.00,,,0.00,WUHU21623XXSP,2013-08-25 21:26:00,
2013-08-25 17:31:00,84.0,66.6,30.29,NNW,337,0.0,0.0,56,0.00,,,0.00,WUHU21623XXSP,2013-08-25 21:31:00,
2013-08-25 17:36:00,83.8,66.5,30.29,NNW,337,0.0,0.0,56,0.00,,,0.00,WUHU21623XXSP,2013-08-25 21:36:00,
2013-08-25 17:41:00,83.1,65.7,30.29,NNW,337,0.0,0.0,56,0.00,,,0.00,WUHU21623XXSP,2013-08-25 21:41:00,
2013-08-25 17:46:00,82.8,65.9,30.29,NNW,337,0.0,0.0,57,0.00,,,0.00,WUHU21623XXSP,2013-08-25 21:46:00,
2013-08-25 17:51:00,82.6,65.7,30.29,NNW,337,0.0,0.0,57,0.00,,,0.00,WUHU21623XXSP,2013-08-25 21:51:00,
2013-08-25 17:56:00,82.4,66.1,30.29,NNW,337,0.0,0.0,58,0.00,,,0.00,WUHU21623XXSP,2013-08-25 21:56:00,
2013-08-25 18:01:00,82.2,65.9,30.29,NNW,337,0.0,0.0,58,0.00,,,0.00,WUHU21623XXSP,2013-08-25 22:01:00,
2013-08-25 18:06:00,82.0,66.3,30.29,NNW,337,0.0,0.0,59,0.00,,,0.00,WUHU21623XXSP,2013-08-25 22:06:00,
2013-08-25 18:11:00,81.7,65.9,30.29,NNW,337,0.0,0.0,59,0.00,,,0.00,WUHU21623XXSP,2013-08-25 22:11:00,
2013-08-25 18:16:00,80.8,65.6,30.29,NNW,337,0.0,0.0,60,0.00,,,0.00,WUHU21623XXSP,2013-08-25 22:16:00,
2013-08-25 18:21:00,80.4,65.8,30.29,NNW,337,0.0,0.0,61,0.00,,,0.00,WUHU21623XXSP,2013-08-25 22:21:00,
2013-08-25 18:26:00,79.9,65.3,30.29,NNW,337,0.0,0.0,61,0.00,,,0.00,WUHU21623XXSP,2013-08-25 22:26:00,
2013-08-25 18:31:00,79.5,65.4,30.29,NNW,337,0.0,0.0,62,0.00,,,0.00,WUHU21623XXSP,2013-08-25 22:31:00,
2013-08-25 18:36:00,79.3,65.2,30.29,NNW,337,0.0,0.0,62,0.00,,,0.00,WUHU21623XXSP,2013-08-25 22:36:00,
2013-08-25 18:41:00,79.2,65.5,30.29,NNW,337,0.0,0.0,63,0.00,,,0.00,WUHU21623XXSP,2013-08-25 22:41:00,
2013-08-25 18:46:00,79.0,65.3,30.29,NNW,337,0.0,0.0,63,0.00,,,0.00,WUHU21623XXSP,2013-08-25 22:46:00,
2013-08-25 18:51:00,78.8,65.6,30.29,NNW,337,0.0,0.0,64,0.00,,,0.00,WUHU21623XXSP,2013-08-25 22:51:00,
2013-08-25 18:56:00,78.4,65.2,30.29,NNW,337,0.0,0.0,64,0.00,,,0.00,WUHU21623XXSP,2013-08-25 22:56:00,
2013-08-25 19:01:00,78.1,65.3,30.29,NNW,337,0.0,0.0,65,0.00,,,0.00,WUHU21623XXSP,2013-08-25 23:01:00,
2013-08-25 19:06:00,77.9,65.6,30.29,NNW,337,0.0,0.0,66,0.00,,,0.00,WUHU21623XXSP,2013-08-25 23:06:00,
2013-08-25 19:11:00,77.5,65.3,30.29,NNW,337,0.0,0.0,66,0.00,,,0.00,WUHU21623XXSP,2013-08-25 23:11:00,
2013-08-25 19:16:00,77.2,65.4,30.29,NNW,337,0.0,0.0,67,0.00,,,0.00,WUHU21623XXSP,2013-08-25 23:16:00,
2013-08-25 19:21:00,77.0,65.2,30.29,NNW,337,0.0,0.0,67,0.00,,,0.00,WUHU21623XXSP,2013-08-25 23:21:00,
2013-08-25 19:26:00,76.6,65.3,30.29,NNW,337,0.0,0.0,68,0.00,,,0.00,WUHU21623XXSP,2013-08-25 23:26:00,
2013-08-25 19:31:00,76.3,64.9,30.29,NNW,337,0.0,0.0,68,0.00,,,0.00,WUHU21623XXSP,2013-08-25 23:31:00,
2013-08-25 19:36:00,75.9,64.6,30.30,NNW,337,0.0,0.0,68,0.00,,,0.00,WUHU21623XXSP,2013-08-25 23:36:00,
2013-08-25 19:41:00,75.6,64.7,30.30,NNW,337,0.0,0.0,69,0.00,,,0.00,WUHU21623XXSP,2013-08-25 23:41:00,
2013-08-25 19:46:00,75.4,64.5,30.30,NNW,337,0.0,0.0,70,0.00,,,0.00,WUHU21623XXSP,2013-08-25 23:46:00,
2013-08-25 19:51:00,75.2,64.8,30.30,NNW,337,0.0,0.0,70,0.00,,,0.00,WUHU21623XXSP,2013-08-25 23:51:00,
2013-08-25 19:57:00,75.0,65.0,30.30,NNW,337,0.0,0.0,71,0.00,,,0.00,WUHU21623XXSP,2013-08-25 23:57:00,
2013-08-25 20:02:00,75.0,65.0,30.30,NNW,337,0.0,0.0,71,0.00,,,0.00,WUHU21623XXSP,2013-08-26 00:02:00,
2013-08-25 20:07:00,74.8,64.8,30.30,NNW,337,0.0,0.0,71,0.00,,,0.00,WUHU21623XXSP,2013-08-26 00:07:00,
2013-08-25 20:12:00,74.5,64.5,30.30,NNW,337,0.0,0.0,71,0.00,,,0.00,WUHU21623XXSP,2013-08-26 00:12:00,
2013-08-25 20:17:00,74.5,64.5,30.30,NNW,337,0.0,0.0,71,0.00,,,0.00,WUHU21623XXSP,2013-08-26 00:17:00,
2013-08-25 20:22:00,74.3,64.3,30.31,NNW,337,0.0,0.0,71,0.00,,,0.00,WUHU21623XXSP,2013-08-26 00:22:00,
2013-08-25 20:29:00,73.9,64.0,30.31,NNW,337,0.0,0.0,71,0.00,,,0.00,WUHU21623XXSP,2013-08-26 00:29:00,
2013-08-25 20:34:00,73.8,63.8,30.31,NNW,337,0.0,0.0,71,0.00,,,0.00,WUHU21623XXSP,2013-08-26 00:34:00,
2013-08-25 20:39:00,73.6,64.1,30.31,NNW,337,0.0,0.0,72,0.00,,,0.00,WUHU21623XXSP,2013-08-26 00:39:00,
2013-08-25 20:44:00,73.2,63.9,30.32,NNW,337,0.0,0.0,72,0.00,,,0.00,WUHU21623XXSP,2013-08-26 00:44:00,
2013-08-25 20:49:00,73.2,63.7,30.31,NNW,337,0.0,0.0,72,0.00,,,0.00,WUHU21623XXSP,2013-08-26 00:49:00,
2013-08-25 20:54:00,73.0,63.9,30.32,NNW,337,0.0,0.0,73,0.00,,,0.00,WUHU21623XXSP,2013-08-26 00:54:00,
2013-08-25 20:59:00,72.9,63.7,30.32,NNW,337,0.0,0.0,73,0.00,,,0.00,WUHU21623XXSP,2013-08-26 00:59:00,
2013-08-25 21:04:00,72.7,63.6,30.32,NNW,337,0.0,0.0,73,0.00,,,0.00,WUHU21623XXSP,2013-08-26 01:04:00,
2013-08-25 21:09:00,72.5,63.4,30.32,NNW,337,0.0,0.0,73,0.00,,,0.00,WUHU21623XXSP,2013-08-26 01:09:00,
2013-08-25 21:14:00,72.3,63.2,30.32,NNW,337,0.0,0.0,73,0.00,,,0.00,WUHU21623XXSP,2013-08-26 01:14:00,
2013-08-25 21:19:00,72.0,62.8,30.32,NNW,337,0.0,0.0,73,0.00,,,0.00,WUHU21623XXSP,2013-08-26 01:19:00,
2013-08-25 21:24:00,71.8,63.0,30.32,NNW,337,0.0,0.0,74,0.00,,,0.00,WUHU21623XXSP,2013-08-26 01:24:00,
2013-08-25 21:29:00,71.4,62.7,30.32,NNW,337,0.0,0.0,74,0.00,,,0.00,WUHU21623XXSP,2013-08-26 01:29:00,
2013-08-25 21:34:00,71.2,62.9,30.33,NNW,337,0.0,0.0,75,0.00,,,0.00,WUHU21623XXSP,2013-08-26 01:34:00,
2013-08-25 21:39:00,70.9,62.5,30.33,NNW,337,0.0,0.0,75,0.00,,,0.00,WUHU21623XXSP,2013-08-26 01:39:00,
2013-08-25 21:44:00,70.7,62.3,30.33,NNW,337,0.0,0.0,75,0.00,,,0.00,WUHU21623XXSP,2013-08-26 01:44:00,
2013-08-25 21:49:00,70.5,62.2,30.33,NNW,337,0.0,0.0,75,0.00,,,0.00,WUHU21623XXSP,2013-08-26 01:49:00,
2013-08-25 21:54:00,70.3,62.0,30.33,NNW,337,0.0,0.0,75,0.00,,,0.00,WUHU21623XXSP,2013-08-26 01:54:00,
2013-08-25 21:59:00,70.2,62.2,30.34,NNW,337,0.0,0.0,76,0.00,,,0.00,WUHU21623XXSP,2013-08-26 01:59:00,
2013-08-25 22:04:00,70.0,62.0,30.34,NNW,337,0.0,0.0,76,0.00,,,0.00,WUHU21623XXSP,2013-08-26 02:04:00,
2013-08-25 22:09:00,69.8,62.0,30.34,NNW,337,0.0,0.0,76,0.00,,,0.00,WUHU21623XXSP,2013-08-26 02:09:00,
2013-08-25 22:14:00,69.6,62.0,30.34,NNW,337,0.0,0.0,77,0.00,,,0.00,WUHU21623XXSP,2013-08-26 02:14:00,
2013-08-25 22:19:00,69.6,62.0,30.34,NNW,337,0.0,0.0,77,0.00,,,0.00,WUHU21623XXSP,2013-08-26 02:19:00,
2013-08-25 22:24:00,69.6,62.0,30.34,NNW,337,0.0,0.0,77,0.00,,,0.00,WUHU21623XXSP,2013-08-26 02:24:00,
2013-08-25 22:29:00,69.6,62.0,30.34,NNW,337,0.0,0.0,77,0.00,,,0.00,WUHU21623XXSP,2013-08-26 02:29:00,
2013-08-25 22:34:00,69.4,61.9,30.35,NNW,337,0.0,0.0,77,0.00,,,0.00,WUHU21623XXSP,2013-08-26 02:34:00,
2013-08-25 22:39:00,69.3,62.1,30.35,NNW,337,0.0,0.0,78,0.00,,,0.00,WUHU21623XXSP,2013-08-26 02:39:00,
2013-08-25 22:44:00,69.1,61.9,30.35,NNW,337,0.0,0.0,78,0.00,,,0.00,WUHU21623XXSP,2013-08-26 02:44:00,
2013-08-25 22:49:00,69.1,61.9,30.35,NNW,337,0.0,0.0,78,0.00,,,0.00,WUHU21623XXSP,2013-08-26 02:49:00,
2013-08-25 22:54:00,68.9,61.8,30.35,NNW,337,0.0,0.0,78,0.00,,,0.00,WUHU21623XXSP,2013-08-26 02:54:00,
2013-08-25 22:59:00,68.7,61.6,30.35,NNW,337,0.0,0.0,78,0.00,,,0.00,WUHU21623XXSP,2013-08-26 02:59:00,
2013-08-25 23:04:00,68.7,61.6,30.36,NNW,337,0.0,0.0,78,0.00,,,0.00,WUHU21623XXSP,2013-08-26 03:04:00,
2013-08-25 23:09:00,68.7,61.6,30.35,NNW,337,0.0,0.0,78,0.00,,,0.00,WUHU21623XXSP,2013-08-26 03:09:00,
2013-08-25 23:14:00,68.7,61.6,30.35,NNW,337,0.0,0.0,78,0.00,,,0.00,WUHU21623XXSP,2013-08-26 03:14:00,
2013-08-25 23:19:00,68.5,61.4,30.36,NNW,337,0.0,0.0,78,0.00,,,0.00,WUHU21623XXSP,2013-08-26 03:19:00,
2013-08-25 23:24:00,68.4,61.3,30.36,NNW,337,0.0,0.0,78,0.00,,,0.00,WUHU21623XXSP,2013-08-26 03:24:00,
2013-08-25 23:29:00,68.2,61.1,30.35,NNW,337,0.0,0.0,78,0.00,,,0.00,WUHU21623XXSP,2013-08-26 03:29:00,
2013-08-25 23:34:00,67.8,60.8,30.36,NNW,337,0.0,0.0,78,0.00,,,0.00,WUHU21623XXSP,2013-08-26 03:34:00,
2013-08-25 23:39:00,67.8,60.8,30.35,NNW,337,0.0,0.0,78,0.00,,,0.00,WUHU21623XXSP,2013-08-26 03:39:00,
2013-08-25 23:45:00,67.6,60.6,30.35,NNW,337,0.0,0.0,78,0.00,,,0.00,WUHU21623XXSP,2013-08-26 03:45:00,
2013-08-25 23:50:00,67.3,60.2,30.35,NNW,337,0.0,0.0,78,0.00,,,0.00,WUHU21623XXSP,2013-08-26 03:50:00,
2013-08-25 23:55:00,67.3,60.2,30.36,NNW,337,0.0,0.0,78,0.00,,,0.00,WUHU21623XXSP,2013-08-26 03:55:00,